QPF
0.00 0.00 0.00 0.00 0.00 0.00 0.00 0.00 0.00 0.00 0.01 0.00 0.00 0.00 0.00 0.00 0.00 0.00 0.00 0.00 0.00 0.00 0.00 0.00 0.00 0.00 0.00 0.00 0.00 0.00 0.00 0.00 0.00 0.00 0.00 0.01 0.00 0.01 0.00 0.00 0.00 0.00 0.00 0.00 0.00 0.01 0.01 0.01 0.00 0.00 0.00 0.00 0.00 0.01
0.00 0.00 0.00 0.00 0.00 0.00 0.00 0.00 0.00 0.00 0.01 0.01 0.00 0.00 0.01 0.00 0.00 0.00 0.00 0.00 0.00 0.00 0.00 0.00 0.00 0.00 0.00 0.00 0.00 0.00 0.00 0.00 0.00 0.00 0.00 0.01 0.01 0.00 0.00 0.00 0.00 0.00 0.01 0.01 0.00 0.01 0.01 0.00 0.01 0.00 0.00 0.00 0.00 0.00
0.00 0.00 0.00 0.00 0.00 0.00 0.00 0.00 0.00 0.00 0.00 0.00 0.01 0.00 0.00 0.01 0.00 0.00 0.00 0.00 0.00 0.00 0.00 0.00 0.00 0.00 0.00 0.00 0.00 0.00 0.00 0.00 0.00 0.01 0.01 0.01 0.00 0.00 0.00 0.00 0.00 0.00 0.00 0.00 0.00 0.00 0.00 0.00 0.00 0.00 0.00 0.00 0.00 0.00
0.00 0.00 0.00 0.00 0.00 0.00 0.00 0.01 0.02 0.02 0.02 0.01 0.00 0.01 0.01 0.04 0.03 0.00 0.00 0.00 0.00 0.00 0.00 0.00 0.00 0.00 0.00 0.00 0.00 0.00 0.00 0.00 0.00 0.01 0.02 0.01 0.00 0.00 0.00 0.00 0.00 0.00 0.00 0.00 0.00 0.00 0.00 0.00 0.00 0.00 0.00 0.00 0.00 0.00
0.00 0.00 0.00 0.00 0.00 0.00 0.01 0.02 0.02 0.03 0.04 0.01 0.01 0.02 0.03 0.05 0.06 0.01 0.00 0.00 0.00 0.00 0.00 0.00 0.00 0.00 0.00 0.00 0.00 0.00 0.00 0.00 0.00 0.00 0.01 0.00 0.00 0.00 0.00 0.00 0.00 0.00 0.00 0.00 0.00 0.00 0.00 0.00 0.00 0.00 0.00 0.00 0.00 0.00
0.00 0.00 0.00 0.00 0.00 0.00 0.00 0.02 0.04 0.02 0.04 0.04 0.02 0.02 0.01 0.03 0.04 0.01 0.00 0.00 0.00 0.00 0.01 0.00 0.00 0.00 0.00 0.00 0.00 0.00 0.00 0.00 0.00 0.00 0.00 0.01 0.00 0.01 0.00 0.00 0.00 0.00 0.00 0.00 0.00 0.00 0.00 0.00 0.00 0.00 0.00 0.00 0.00 0.00
0.00 0.00 0.00 0.00 0.00 0.00 0.00 0.00 0.01 0.01 0.03 0.06 0.03 0.02 0.00 0.02 0.00 0.00 0.00 0.00 0.00 0.00 0.00 0.00 0.00 0.00 0.00 0.00 0.00 0.00 0.00 0.00 0.00 0.00 0.00 0.00 0.00 0.02 0.00 0.00 0.00 0.00 0.00 0.02 0.01 0.00 0.00 0.00 0.00 0.00 0.00 0.00 0.00 0.00
0.00 0.00 0.00 0.00 0.00 0.00 0.00 0.00 0.00 0.01 0.03 0.03 0.01 0.00 0.01 0.03 0.01 0.00 0.00 0.00 0.01 0.00 0.00 0.00 0.00 0.00 0.00 0.00 0.00 0.00 0.00 0.00 0.00 0.00 0.00 0.00 0.00 0.00 0.00 0.00 0.00 0.00 0.01 0.01 0.00 0.00 0.00 0.00 0.00 0.00 0.00 0.00 0.00 0.00
0.00 0.00 0.00 0.00 0.00 0.00 0.00 0.00 0.00 0.00 0.00 0.00 0.00 0.01 0.01 0.00 0.00 0.00 0.00 0.00 0.00 0.00 0.00 0.00 0.00 0.00 0.00 0.00 0.00 0.00 0.00 0.00 0.00 0.00 0.00 0.01 0.00 0.01 0.00 0.00 0.00 0.00 0.00 0.00 0.00 0.00 0.00 0.00 0.00 0.00 0.00 0.00 0.00 0.00
0.00 0.00 0.00 0.00 0.00 0.00 0.00 0.00 0.00 0.00 0.00 0.00 0.00 0.00 0.00 0.00 0.00 0.00 0.00 0.00 0.01 0.01 0.01 0.00 0.00 0.00 0.00 0.00 0.00 0.00 0.00 0.00 0.00 0.00 0.00 0.00 0.00 0.00 0.00 0.00 0.00 0.00 0.00 0.00 0.00 0.00 0.00 0.00 0.00 0.00 0.00 0.00 0.00 0.00
0.00 0.00 0.00 0.00 0.00 0.00 0.00 0.00 0.00 0.00 0.00 0.00 0.00 0.00 0.00 0.01 0.00 0.00 0.00 0.00 0.00 0.00 0.00 0.00 0.00 0.00 0.00 0.00 0.00 0.00 0.00 0.00 0.00 0.00 0.00 0.00 0.00 0.00 0.00 0.00 0.00 0.00 0.00 0.00 0.00 0.00 0.00 0.00 0.00 0.00 0.00 0.00 0.00 0.00
0.00 0.00 0.00 0.00 0.00 0.00 0.00 0.00 0.00 0.00 0.00 0.00 0.00 0.00 0.00 0.01 0.00 0.00 0.00 0.00 0.00 0.00 0.00 0.00 0.00 0.00 0.00 0.00 0.00 0.00 0.00 0.00 0.00 0.00 0.00 0.00 0.00 0.00 0.00 0.00 0.00 0.00 0.00 0.00 0.00 0.00 0.00 0.00 0.00 0.00 0.00 0.00 0.00 0.00
0.00 0.00 0.00 0.00 0.00 0.00 0.00 0.00 0.00 0.00 0.00 0.00 0.00 0.00 0.00 0.00 0.00 0.00 0.00 0.00 0.00 0.00 0.00 0.00 0.00 0.00 0.00 0.00 0.00 0.00 0.00 0.00 0.00 0.00 0.00 0.00 0.00 0.00 0.00 0.00 0.00 0.00 0.00 0.00 0.00 0.00 0.00 0.00 0.00 0.00 0.00 0.00 0.00 0.00
0.00 0.00 0.00 0.00 0.00 0.00 0.00 0.00 0.00 0.00 0.00 0.00 0.00 0.00 0.00 0.00 0.00 0.00 0.00 0.00 0.00 0.00 0.00 0.00 0.00 0.00 0.00 0.00 0.00 0.00 0.00 0.00 0.00 0.00 0.00 0.00 0.00 0.00 0.00 0.00 0.00 0.00 0.00 0.00 0.00 0.00 0.00 0.00 0.00 0.00 0.00 0.00 0.00 0.00
0.00 0.00 0.00 0.00 0.00 0.00 0.00 0.00 0.00 0.00 0.00 0.00 0.00 0.00 0.00 0.00 0.00 0.00 0.00 0.00 0.00 0.00 0.00 0.00 0.00 0.00 0.00 0.00 0.00 0.00 0.00 0.00 0.00 0.00 0.00 0.00 0.00 0.00 0.00 0.00 0.00 0.00 0.00 0.00 0.00 0.00 0.00 0.00 0.00 0.00 0.00 0.00 0.00 0.00
0.00 0.00 0.00 0.00 0.00 0.00 0.00 0.00 0.00 0.00 0.00 0.00 0.00 0.00 0.00 0.00 0.00 0.00 0.00 0.00 0.00 0.00 0.00 0.00 0.00 0.00 0.00 0.00 0.00 0.00 0.00 0.00 0.00 0.00 0.00 0.00 0.00 0.00 0.00 0.00 0.00 0.00 0.00 0.00 0.00 0.00 0.00 0.00 0.00 0.00 0.00 0.00 0.00 0.00
0.00 0.00 0.00 0.00 0.00 0.00 0.00 0.00 0.00 0.00 0.00 0.00 0.00 0.00 0.00 0.00 0.00 0.00 0.00 0.00 0.00 0.00 0.00 0.00 0.00 0.00 0.00 0.01 0.02 0.00 0.00 0.00 0.00 0.00 0.00 0.00 0.00 0.00 0.00 0.00 0.00 0.00 0.00 0.00 0.00 0.00 0.00 0.00 0.00 0.00 0.00 0.00 0.00 0.00
0.00 0.00 0.00 0.00 0.00 0.00 0.00 0.00 0.00 0.00 0.00 0.00 0.00 0.00 0.00 0.00 0.00 0.00 0.00 0.00 0.00 0.00 0.00 0.00 0.00 0.00 0.00 0.01 0.00 0.00 0.00 0.00 0.00 0.00 0.00 0.00 0.00 0.00 0.00 0.00 0.00 0.00 0.00 0.00 0.00 0.00 0.00 0.00 0.00 0.00 0.00 0.00 0.00 0.00
0.00 0.00 0.00 0.00 0.00 0.00 0.00 0.00 0.00 0.00 0.00 0.00 0.00 0.00 0.00 0.00 0.00 0.00 0.00 0.00 0.00 0.00 0.00 0.00 0.00 0.00 0.00 0.00 0.00 0.00 0.00 0.00 0.00 0.00 0.00 0.00 0.00 0.00 0.00 0.00 0.00 0.00 0.00 0.00 0.00 0.00 0.00 0.00 0.00 0.00 0.00 0.00 0.00 0.00
0.00 0.00 0.00 0.00 0.00 0.00 0.00 0.00 0.00 0.00 0.00 0.00 0.00 0.00 0.00 0.00 0.00 0.00 0.01 0.00 0.00 0.00 0.00 0.00 0.00 0.00 0.00 0.00 0.00 0.00 0.00 0.00 0.00 0.00 0.00 0.00 0.00 0.00 0.00 0.00 0.00 0.00 0.00 0.00 0.00 0.00 0.00 0.00 0.00 0.00 0.00 0.00 0.00 0.00
0.00 0.00 0.00 0.00 0.00 0.00 0.00 0.00 0.00 0.00 0.00 0.00 0.00 0.00 0.00 0.00 0.00 0.00 0.01 0.00 0.00 0.00 0.00 0.00 0.00 0.00 0.00 0.00 0.00 0.00 0.00 0.00 0.00 0.00 0.00 0.00 0.00 0.00 0.00 0.00 0.00 0.00 0.00 0.00 0.00 0.00 0.00 0.00 0.00 0.00 0.00 0.00 0.00 0.00
0.00 0.00 0.00 0.00 0.00 0.00 0.00 0.00 0.00 0.00 0.00 0.00 0.00 0.00 0.00 0.00 0.00 0.00 0.01 0.01 0.00 0.00 0.00 0.00 0.00 0.00 0.00 0.00 0.00 0.00 0.00 0.00 0.00 0.00 0.00 0.00 0.00 0.00 0.00 0.00 0.00 0.00 0.00 0.00 0.00 0.00 0.00 0.00 0.00 0.00 0.00 0.00 0.00 0.00
0.00 0.00 0.00 0.00 0.00 0.00 0.00 0.00 0.00 0.00 0.00 0.00 0.00 0.00 0.00 0.00 0.00 0.00 0.01 0.00 0.00 0.00 0.00 0.00 0.00 0.00 0.00 0.00 0.00 0.00 0.00 0.00 0.00 0.00 0.00 0.00 0.00 0.00 0.00 0.00 0.00 0.00 0.00 0.00 0.00 0.00 0.00 0.00 0.00 0.00 0.00 0.00 0.00 0.00
0.00 0.00 0.00 0.00 0.00 0.00 0.00 0.00 0.00 0.00 0.00 0.00 0.00 0.00 0.00 0.00 0.00 0.00 0.00 0.00 0.00 0.00 0.00 0.00 0.00 0.00 0.00 0.00 0.00 0.00 0.00 0.00 0.00 0.00 0.00 0.00 0.00 0.00 0.00 0.00 0.00 0.00 0.00 0.00 0.00 0.00 0.00 0.00 0.00 0.00 0.00 0.00 0.00 0.00
0.00 0.00 0.00 0.00 0.00 0.00 0.00 0.00 0.00 0.00 0.00 0.00 0.00 0.00 0.00 0.00 0.00 0.00 0.00 0.00 0.00 0.00 0.00 0.00 0.00 0.00 0.00 0.00 0.00 0.00 0.00 0.00 0.00 0.00 0.00 0.00 0.00 0.00 0.00 0.00 0.00 0.00 0.00 0.00 0.00 0.00 0.00 0.00 0.00 0.00 0.00 0.00 0.00 0.00
0.00 0.00 0.00 0.00 0.00 0.00 0.00 0.00 0.00 0.00 0.00 0.00 0.00 0.00 0.00 0.00 0.00 0.00 0.00 0.00 0.00 0.00 0.00 0.00 0.00 0.00 0.00 0.00 0.00 0.00 0.00 0.00 0.00 0.00 0.00 0.00 0.00 0.00 0.00 0.00 0.00 0.00 0.00 0.00 0.00 0.00 0.00 0.00 0.00 0.00 0.00 0.00 0.00 0.00
0.00 0.00 0.00 0.00 0.00 0.00 0.00 0.00 0.00 0.00 0.00 0.00 0.00 0.00 0.00 0.00 0.00 0.00 0.00 0.00 0.00 0.00 0.00 0.00 0.00 0.00 0.00 0.00 0.00 0.00 0.00 0.00 0.00 0.00 0.00 0.00 0.00 0.00 0.00 0.00 0.00 0.00 0.00 0.00 0.00 0.00 0.00 0.00 0.00 0.00 0.00 0.00 0.00 0.00
0.00 0.00 0.00 0.00 0.00 0.00 0.00 0.00 0.00 0.00 0.00 0.00 0.00 0.00 0.00 0.00 0.00 0.00 0.00 0.00 0.00 0.00 0.00 0.00 0.00 0.00 0.00 0.00 0.00 0.00 0.00 0.00 0.00 0.00 0.00 0.00 0.00 0.00 0.00 0.00 0.00 0.00 0.00 0.00 0.00 0.00 0.00 0.00 0.00 0.00 0.00 0.00 0.00 0.00
0.00 0.00 0.00 0.00 0.00 0.00 0.00 0.00 0.00 0.00 0.00 0.00 0.00 0.00 0.00 0.00 0.00 0.00 0.00 0.00 0.00 0.00 0.00 0.00 0.00 0.00 0.00 0.00 0.00 0.00 0.00 0.00 0.00 0.00 0.00 0.00 0.00 0.00 0.00 0.00 0.00 0.00 0.00 0.00 0.00 0.00 0.00 0.00 0.00 0.00 0.00 0.00 0.00 0.00
0.00 0.00 0.00 0.00 0.00 0.00 0.00 0.00 0.00 0.00 0.00 0.00 0.00 0.00 0.00 0.00 0.00 0.00 0.00 0.00 0.00 0.00 0.00 0.00 0.00 0.00 0.00 0.00 0.00 0.00 0.00 0.00 0.00 0.00 0.00 0.00 0.00 0.00 0.00 0.00 0.00 0.00 0.00 0.00 0.00 0.00 0.00 0.00 0.00 0.00 0.00 0.00 0.00 0.00
0.00 0.00 0.00 0.00 0.00 0.00 0.00 0.00 0.00 0.00 0.00 0.00 0.00 0.00 0.00 0.00 0.00 0.00 0.00 0.00 0.00 0.00 0.00 0.00 0.00 0.00 0.00 0.00 0.00 0.00 0.00 0.00 0.00 0.00 0.00 0.00 0.00 0.00 0.00 0.00 0.00 0.00 0.00 0.00 0.00 0.00 0.00 0.00 0.00 0.00 0.00 0.00 0.00 0.00
0.00 0.00 0.00 0.00 0.00 0.00 0.00 0.00 0.00 0.00 0.00 0.00 0.00 0.00 0.00 0.00 0.00 0.00 0.00 0.00 0.00 0.00 0.00 0.00 0.00 0.00 0.00 0.00 0.00 0.00 0.00 0.00 0.00 0.00 0.00 0.00 0.00 0.00 0.00 0.00 0.00 0.00 0.00 0.00 0.00 0.00 0.00 0.00 0.00 0.00 0.00 0.00 0.00 0.00
0.00 0.00 0.00 0.00 0.00 0.00 0.00 0.00 0.00 0.00 0.00 0.00 0.00 0.00 0.00 0.00 0.00 0.00 0.00 0.00 0.00 0.00 0.00 0.00 0.00 0.00 0.00 0.00 0.00 0.00 0.00 0.00 0.00 0.00 0.00 0.00 0.00 0.00 0.00 0.00 0.00 0.00 0.00 0.00 0.00 0.00 0.00 0.00 0.00 0.00 0.00 0.00 0.00 0.00
MSLP
1013.79 1013.96 1014.04 1014.44 1014.47 1014.82 1015.25 1015.84 1016.12 1016.58 1016.83 1017.34 1018.09 1018.51 1018.77 1018.98 1019.49 1019.46 1020.48 1020.42 1021.07 1021.69 1021.30 1020.92 1020.77 1020.87 1021.20 1021.50 1021.74 1021.05 1020.96 1020.80 1020.60 1020.82 1020.64 1019.60 1018.71 1017.45 1016.35 1014.71 1013.76 1013.04 1012.40 1011.37 1010.53 1008.75 1007.27 1006.38 1005.36 1004.73 1004.69 1003.85 1003.66 1002.96
1013.74 1013.96 1014.05 1014.03 1014.56 1014.71 1015.06 1015.31 1015.81 1016.35 1016.51 1017.35 1017.68 1018.30 1018.85 1018.89 1019.28 1019.48 1020.49 1020.67 1020.92 1021.54 1021.16 1020.65 1020.23 1019.95 1020.19 1020.07 1020.54 1020.87 1020.75 1020.53 1020.46 1021.11 1020.64 1020.00 1019.04 1017.86 1016.66 1015.00 1013.52 1013.19 1012.89 1012.60 1012.37 1009.43 1007.41 1007.45 1006.12 1004.92 1004.23 1003.79 1003.47 1003.46
1013.49 1013.89 1013.82 1013.77 1013.87 1014.25 1014.31 1014.62 1015.26 1015.78 1016.34 1016.82 1017.50 1018.17 1018.50 1018.73 1019.06 1019.51 1020.35 1020.75 1021.13 1021.46 1020.87 1020.47 1019.37 1018.60 1018.62 1018.77 1019.23 1020.13 1019.54 1019.46 1019.72 1019.61 1020.16 1019.57 1018.83 1017.91 1016.74 1015.06 1013.97 1012.91 1012.35 1012.07 1011.55 1008.69 1008.36 1006.78 1005.71 1004.28 1003.35 1003.17 1002.82 1002.93
1013.50 1013.49 1013.20 1012.92 1013.11 1013.10 1013.21 1013.62 1014.21 1014.96 1015.63 1016.33 1016.99 1017.57 1018.06 1018.54 1018.99 1019.61 1020.34 1020.61 1021.12 1021.49 1021.22 1019.55 1018.37 1018.04 1017.03 1017.43 1017.90 1017.91 1017.99 1018.54 1018.85 1019.28 1019.39 1018.91 1018.27 1016.95 1015.96 1015.07 1014.18 1013.27 1012.56 1011.20 1010.25 1008.89 1008.09 1006.32 1005.61 1004.67 1003.68 1003.12 1002.76 1002.20
1013.16 1012.70 1012.44 1012.29 1012.15 1012.04 1011.98 1012.25 1013.11 1013.88 1014.84 1015.70 1016.57 1017.36 1018.03 1018.58 1019.11 1019.88 1020.26 1020.37 1020.60 1021.28 1021.22 1019.81 1018.05 1016.06 1015.93 1016.43 1016.78 1017.17 1017.77 1018.21 1018.68 1018.95 1018.57 1017.94 1017.13 1016.52 1015.01 1014.10 1012.20 1011.73 1011.38 1010.66 1009.34 1008.68 1008.44 1006.89 1005.50 1004.62 1004.03 1003.17 1002.41 1002.30
1012.83 1012.39 1012.17 1012.05 1011.65 1011.14 1010.66 1010.79 1011.93 1013.27 1014.27 1015.37 1016.44 1017.38 1017.99 1018.61 1019.49 1020.27 1020.53 1020.07 1020.29 1020.79 1021.22 1019.75 1017.44 1016.03 1015.32 1015.43 1015.77 1016.22 1016.69 1017.44 1017.85 1017.56 1017.35 1016.65 1015.85 1015.78 1014.49 1012.37 1010.37 1009.90 1009.69 1009.30 1009.29 1008.46 1007.50 1006.23 1005.34 1004.56 1004.18 1003.16 1002.38 1002.05
1013.10 1012.68 1012.35 1012.08 1011.60 1011.33 1011.21 1011.48 1012.26 1013.52 1014.53 1015.47 1016.64 1017.50 1018.21 1018.85 1019.55 1019.97 1020.16 1020.08 1020.06 1020.53 1020.95 1020.13 1018.30 1016.04 1015.15 1015.01 1015.28 1015.32 1015.58 1016.01 1016.25 1016.41 1015.87 1015.42 1015.02 1014.82 1013.75 1012.03 1008.88 1009.19 1009.05 1008.58 1007.91 1007.19 1006.47 1005.92 1005.35 1004.54 1003.70 1002.71 1002.02 1001.46
1013.75 1013.19 1012.89 1012.78 1012.90 1012.93 1012.86 1013.02 1013.58 1014.26 1015.03 1016.08 1017.09 1017.99 1018.70 1018.97 1019.52 1019.74 1019.63 1019.58 1020.05 1020.60 1020.76 1020.19 1018.42 1017.04 1015.25 1015.19 1015.38 1015.04 1015.27 1015.29 1015.04 1014.72 1014.60 1014.36 1014.17 1013.88 1012.20 1009.46 1009.13 1008.73 1008.58 1008.08 1007.52 1007.13 1006.75 1006.14 1005.44 1004.68 1003.76 1002.75 1001.70 1001.27
1014.72 1014.37 1013.87 1013.91 1014.02 1014.10 1014.26 1014.39 1014.71 1015.28 1016.10 1016.97 1017.69 1018.25 1019.11 1019.60 1019.82 1019.42 1019.04 1019.15 1019.74 1020.67 1020.43 1019.43 1018.32 1016.89 1015.26 1015.06 1015.04 1014.82 1014.62 1014.19 1013.69 1013.59 1013.38 1013.38 1012.67 1011.51 1009.81 1009.38 1009.01 1008.90 1008.74 1008.14 1007.65 1007.14 1006.84 1006.46 1005.75 1005.03 1004.36 1003.63 1003.18 1002.81
1015.67 1015.53 1015.58 1015.58 1015.58 1015.65 1015.72 1016.00 1016.45 1016.88 1017.20 1017.66 1018.30 1018.82 1019.64 1019.33 1018.83 1019.01 1019.27 1019.57 1019.78 1019.65 1019.35 1018.00 1017.50 1016.51 1015.78 1015.35 1015.11 1014.68 1014.17 1013.43 1012.58 1012.35 1012.30 1012.07 1010.89 1009.93 1009.37 1009.21 1008.95 1009.00 1008.90 1008.67 1008.09 1007.77 1007.33 1006.86 1006.30 1005.70 1005.17 1004.98 1004.70 1004.29
1016.64 1016.76 1016.77 1016.66 1016.63 1016.69 1016.81 1017.06 1017.32 1017.65 1017.93 1018.34 1018.81 1019.02 1018.85 1018.55 1018.95 1019.28 1019.45 1019.40 1019.12 1018.65 1017.82 1016.61 1016.25 1015.71 1015.31 1015.00 1014.54 1014.31 1013.83 1013.00 1011.77 1011.27 1011.33 1010.79 1009.95 1009.37 1009.68 1009.53 1009.46 1009.46 1009.44 1009.26 1009.02 1008.87 1008.51 1007.76 1006.92 1006.32 1005.87 1005.67 1005.41 1005.09
1017.34 1017.44 1017.50 1017.53 1017.57 1017.63 1017.74 1017.93 1018.09 1018.35 1018.52 1018.45 1018.49 1018.69 1018.82 1018.89 1019.19 1019.33 1019.02 1018.74 1018.35 1017.23 1016.21 1015.88 1015.09 1014.68 1014.39 1014.22 1014.06 1013.76 1013.21 1012.42 1011.77 1011.25 1010.84 1010.04 1010.13 1010.09 1009.93 1009.90 1009.87 1009.81 1009.76 1009.50 1009.11 1008.94 1008.65 1008.09 1007.56 1007.03 1006.46 1006.24 1006.03 1005.74
1017.82 1017.85 1017.92 1018.01 1018.10 1018.18 1018.17 1018.11 1018.17 1018.14 1018.01 1018.28 1018.63 1018.93 1019.25 1019.56 1019.45 1019.27 1018.62 1017.82 1017.20 1016.30 1015.54 1014.80 1014.52 1013.90 1013.53 1013.68 1013.45 1012.99 1012.55 1011.89 1011.26 1011.34 1010.97 1010.69 1010.38 1010.21 1010.09 1010.04 1010.04 1010.11 1010.03 1009.67 1009.31 1009.04 1008.93 1008.65 1008.05 1007.64 1007.10 1006.77 1006.41 1006.07
1017.94 1017.97 1018.02 1018.08 1018.16 1018.23 1018.29 1018.33 1018.29 1018.21 1018.45 1018.81 1018.82 1019.26 1019.49 1019.37 1018.91 1018.04 1017.54 1017.01 1016.40 1015.94 1015.37 1014.86 1014.45 1013.74 1013.22 1013.17 1012.80 1012.62 1011.86 1011.63 1011.63 1011.49 1011.05 1010.96 1010.75 1010.63 1010.66 1010.68 1010.50 1010.37 1010.29 1010.05 1009.65 1009.32 1009.03 1008.85 1008.54 1008.02 1007.76 1007.34 1006.86 1006.50
1017.98 1017.93 1017.83 1017.87 1017.92 1018.01 1018.13 1018.23 1018.30 1018.51 1018.76 1018.66 1018.74 1018.87 1018.65 1018.05 1017.71 1017.32 1016.91 1016.50 1016.01 1015.58 1015.06 1014.65 1014.16 1013.69 1012.91 1012.90 1012.65 1012.35 1012.20 1011.84 1011.65 1011.71 1011.68 1011.53 1011.25 1011.15 1011.02 1010.98 1011.03 1010.76 1010.52 1010.16 1009.84 1009.63 1009.33 1008.98 1008.75 1008.40 1007.85 1007.60 1007.32 1006.95
1017.88 1017.78 1017.68 1017.49 1017.61 1017.81 1017.98 1018.16 1018.37 1018.52 1018.59 1018.42 1018.36 1018.25 1018.00 1018.20 1017.76 1017.17 1016.55 1015.85 1015.22 1015.14 1014.84 1014.64 1013.98 1013.54 1012.89 1012.63 1012.48 1012.09 1011.93 1011.83 1012.00 1012.01 1011.90 1011.73 1011.53 1011.26 1011.19 1011.19 1011.10 1010.85 1010.58 1010.21 1009.83 1009.53 1009.28 1009.01 1008.79 1008.44 1007.91 1007.58 1007.41 1007.23
1017.62 1017.66 1017.33 1017.28 1017.52 1017.67 1017.81 1018.10 1018.26 1018.29 1018.11 1017.99 1017.54 1017.47 1017.96 1017.93 1017.35 1016.51 1015.53 1015.05 1014.66 1015.06 1014.85 1014.55 1014.30 1013.34 1013.00 1012.41 1012.21 1011.77 1011.73 1011.87 1012.06 1012.18 1012.17 1012.25 1012.13 1011.77 1011.46 1011.46 1011.24 1010.87 1010.54 1010.21 1009.91 1009.57 1009.18 1008.77 1008.47 1008.30 1007.97 1007.49 1007.32 1007.24
1017.66 1017.62 1017.44 1017.47 1017.57 1017.71 1017.84 1018.01 1018.13 1017.84 1017.49 1017.06 1017.28 1016.94 1017.06 1016.65 1016.14 1015.56 1015.06 1014.70 1014.61 1014.56 1014.62 1014.42 1014.33 1013.84 1013.29 1012.60 1012.33 1012.39 1012.45 1012.61 1012.71 1012.73 1012.61 1012.58 1012.38 1012.27 1012.05 1011.80 1011.39 1011.02 1010.68 1010.36 1009.93 1009.53 1009.09 1008.77 1008.44 1008.12 1007.86 1007.51 1007.13 1007.01
1017.62 1017.49 1017.43 1017.52 1017.63 1017.71 1017.76 1017.85 1017.85 1017.33 1016.60 1016.45 1016.11 1015.97 1015.91 1015.50 1014.93 1014.66 1014.41 1014.13 1014.05 1014.16 1014.44 1014.28 1014.15 1013.60 1013.02 1012.67 1012.67 1012.69 1012.81 1012.98 1013.02 1013.01 1013.00 1012.92 1012.81 1012.64 1012.40 1012.13 1011.84 1011.54 1011.17 1010.71 1010.18 1009.71 1009.29 1008.89 1008.52 1008.08 1007.72 1007.36 1007.08 1006.80
1016.91 1016.62 1016.59 1017.13 1017.53 1017.82 1017.68 1017.21 1017.02 1016.68 1016.11 1015.42 1015.33 1015.20 1015.13 1014.90 1014.44 1014.27 1014.09 1014.08 1014.15 1014.36 1014.41 1014.10 1013.62 1012.98 1012.57 1012.52 1012.81 1012.84 1012.97 1013.05 1013.13 1013.26 1013.46 1013.42 1013.26 1013.05 1012.83 1012.63 1012.39 1012.01 1011.55 1011.01 1010.51 1009.95 1009.43 1008.94 1008.42 1008.04 1007.64 1007.24 1006.91 1006.62
1016.55 1016.49 1016.55 1017.08 1017.53 1017.75 1017.55 1016.85 1016.45 1015.88 1015.26 1015.12 1014.59 1014.69 1014.60 1014.49 1014.41 1014.33 1014.14 1013.94 1014.33 1014.56 1014.25 1014.18 1014.01 1013.34 1012.87 1012.54 1012.80 1012.93 1013.31 1013.56 1013.91 1014.10 1014.32 1014.00 1013.71 1013.46 1013.17 1012.90 1012.62 1012.20 1011.87 1011.38 1010.90 1010.20 1009.61 1009.06 1008.40 1007.88 1007.58 1007.15 1006.71 1006.40
1016.51 1016.25 1016.76 1017.04 1017.41 1017.53 1017.39 1016.36 1016.17 1015.62 1015.54 1014.78 1014.68 1014.53 1014.51 1014.41 1014.29 1013.98 1013.87 1014.31 1015.25 1015.90 1015.90 1015.46 1014.84 1014.23 1014.18 1014.14 1014.58 1014.56 1014.75 1014.65 1014.62 1014.66 1014.64 1014.41 1014.09 1013.71 1013.36 1013.09 1012.64 1012.25 1011.86 1011.45 1010.95 1010.43 1009.76 1009.02 1008.37 1007.79 1007.34 1006.89 1006.55 1006.14
1016.10 1016.24 1016.67 1017.11 1017.66 1017.62 1017.00 1016.37 1016.29 1015.65 1015.54 1014.94 1014.69 1014.72 1014.56 1014.35 1013.86 1013.79 1014.33 1015.37 1016.24 1016.62 1016.44 1016.05 1015.69 1015.61 1015.44 1015.28 1015.27 1015.33 1015.39 1015.40 1015.22 1015.17 1015.07 1014.81 1014.49 1014.23 1013.73 1013.28 1012.87 1012.42 1011.80 1011.22 1010.83 1010.28 1009.57 1009.16 1008.57 1007.76 1007.25 1006.77 1006.35 1005.88
1015.84 1016.54 1016.98 1017.26 1017.58 1017.81 1017.46 1016.96 1016.50 1016.21 1015.83 1015.68 1015.58 1015.55 1014.92 1014.46 1014.05 1014.08 1015.22 1016.40 1017.00 1017.03 1016.95 1016.75 1016.43 1016.11 1015.93 1015.87 1015.95 1016.11 1016.27 1016.26 1016.01 1015.62 1015.50 1015.26 1014.78 1014.40 1013.96 1013.48 1012.98 1012.55 1011.97 1011.42 1010.83 1010.39 1009.89 1009.38 1008.83 1008.10 1007.37 1006.82 1006.32 1005.84
1016.75 1017.31 1017.57 1017.59 1017.72 1018.15 1018.11 1017.67 1017.36 1016.99 1017.04 1016.65 1016.48 1016.01 1015.32 1014.92 1015.16 1015.48 1016.24 1017.21 1017.59 1017.77 1017.76 1017.60 1017.36 1017.20 1017.06 1016.97 1017.04 1017.11 1017.12 1016.97 1016.60 1016.24 1015.92 1015.73 1015.40 1014.80 1014.28 1013.87 1013.53 1013.16 1012.43 1012.02 1011.43 1010.76 1009.90 1009.45 1008.90 1008.25 1007.56 1006.87 1006.22 1005.72
1016.94 1017.21 1017.47 1017.21 1017.59 1017.90 1017.95 1018.29 1017.89 1017.60 1017.45 1017.34 1016.93 1016.32 1016.11 1016.22 1016.59 1016.94 1017.55 1017.95 1018.25 1018.53 1018.61 1018.66 1018.37 1018.20 1018.16 1018.22 1018.15 1017.97 1017.81 1017.54 1017.20 1016.79 1016.39 1016.25 1015.88 1015.42 1014.92 1014.45 1013.95 1013.31 1012.93 1012.72 1012.17 1011.35 1010.44 1009.70 1009.03 1008.31 1007.47 1006.76 1006.06 1005.45
1017.18 1017.04 1017.00 1017.00 1017.24 1017.61 1018.15 1017.94 1017.83 1018.11 1017.94 1018.10 1017.60 1017.44 1017.49 1017.71 1017.77 1018.18 1018.55 1018.94 1019.09 1019.31 1019.34 1019.36 1019.21 1019.07 1019.03 1018.88 1018.73 1018.65 1018.50 1018.16 1017.97 1017.54 1016.84 1016.41 1015.93 1015.61 1015.52 1015.08 1014.44 1013.65 1013.09 1012.69 1012.29 1011.65 1010.73 1009.78 1008.95 1008.20 1007.38 1006.48 1005.76 1005.15
1016.73 1016.87 1017.40 1017.67 1017.88 1018.09 1019.08 1019.18 1018.78 1018.30 1018.15 1018.04 1018.06 1018.37 1018.46 1018.39 1018.87 1019.25 1019.60 1019.91 1019.91 1019.90 1019.89 1019.85 1019.73 1019.57 1019.35 1019.05 1018.81 1018.61 1018.38 1018.17 1017.73 1017.07 1016.64 1016.12 1015.78 1015.52 1015.13 1014.77 1014.20 1013.47 1012.88 1012.38 1011.96 1011.20 1010.44 1009.62 1008.77 1007.92 1007.09 1006.19 1005.29 1004.61
1017.31 1017.40 1017.82 1018.73 1019.04 1019.21 1019.05 1019.04 1018.82 1018.37 1018.01 1018.04 1018.48 1018.49 1018.71 1019.28 1019.62 1019.87 1020.22 1020.43 1020.46 1020.44 1020.36 1020.33 1020.22 1019.95 1019.61 1019.27 1018.96 1018.74 1018.57 1018.38 1018.15 1017.34 1016.61 1015.82 1015.10 1014.90 1014.55 1014.13 1013.52 1012.87 1012.23 1011.58 1010.94 1010.42 1009.75 1009.08 1008.22 1007.39 1006.45 1005.58 1004.67 1003.97
1018.11 1017.88 1018.90 1019.58 1020.35 1019.96 1019.06 1018.53 1018.53 1018.26 1018.00 1017.59 1017.91 1018.81 1019.43 1020.06 1020.43 1020.33 1020.55 1020.75 1020.85 1020.93 1020.93 1020.93 1020.71 1020.65 1020.34 1019.78 1019.29 1018.96 1018.70 1018.44 1018.26 1018.13 1017.18 1016.07 1015.23 1014.57 1014.07 1013.55 1012.97 1012.28 1011.57 1010.95 1010.31 1009.44 1008.56 1007.92 1007.16 1006.25 1005.51 1004.68 1004.00 1003.33
1018.48 1018.87 1019.66 1020.08 1020.20 1019.65 1019.53 1019.31 1018.84 1018.74 1018.78 1018.49 1018.60 1018.97 1019.68 1020.30 1020.62 1020.69 1020.85 1021.02 1021.08 1021.11 1021.24 1021.14 1021.09 1020.53 1020.57 1019.87 1019.41 1018.84 1018.32 1017.97 1017.54 1017.10 1016.58 1015.85 1015.03 1014.31 1013.69 1013.08 1012.39 1011.66 1010.99 1010.40 1009.85 1009.14 1008.32 1007.56 1006.60 1005.74 1004.87 1004.09 1003.44 1003.22
1019.65 1020.21 1020.55 1021.17 1020.73 1020.10 1020.11 1020.68 1020.66 1020.08 1019.91 1019.48 1019.72 1019.80 1020.12 1020.39 1020.72 1020.92 1020.89 1021.15 1021.43 1021.57 1021.52 1021.31 1021.03 1020.51 1019.96 1019.37 1019.03 1018.60 1018.23 1017.81 1017.12 1016.42 1015.76 1015.11 1014.33 1013.76 1013.16 1012.45 1011.73 1011.13 1010.57 1010.10 1009.46 1008.73 1007.90 1007.14 1006.36 1005.43 1004.47 1003.53 1003.40 1003.62
1020.59 1020.70 1021.16 1021.56 1021.32 1021.31 1021.53 1021.79 1022.00 1021.55 1020.87 1020.56 1020.32 1020.37 1020.51 1020.73 1020.93 1021.00 1020.84 1020.69 1021.01 1021.17 1021.17 1020.83 1020.50 1019.86 1019.34 1018.91 1018.53 1018.07 1017.58 1017.09 1016.45 1015.84 1015.25 1014.71 1014.08 1013.39 1012.70 1011.98 1011.41 1011.04 1010.58 1009.97 1009.29 1008.60 1007.99 1007.35 1006.61 1005.70 1004.71 1004.33 1004.32 1004.46
Thickness
5427 5426 5425 5422 5422 5418 5412 5407 5404 5398 5393 5385 5374 5368 5364 5359 5351 5347 5339 5337 5330 5320 5321 5322 5320 5312 5304 5298 5284 5302 5297 5294 5298 5277 5284 5295 5297 5330 5331 5349 5351 5357 5359 5373 5373 5389 5396 5411 5422 5426 5424 5435 5438 5447
5418 5416 5414 5413 5407 5406 5403 5399 5391 5383 5379 5367 5360 5350 5340 5338 5334 5328 5317 5317 5316 5313 5313 5315 5312 5307 5303 5301 5290 5288 5292 5287 5282 5260 5259 5280 5295 5314 5323 5322 5357 5345 5355 5355 5355 5379 5407 5393 5410 5425 5430 5431 5435 5436
5410 5405 5402 5400 5400 5396 5392 5386 5378 5370 5361 5353 5340 5330 5324 5320 5316 5312 5302 5302 5299 5296 5300 5302 5304 5308 5304 5302 5295 5279 5286 5288 5285 5282 5270 5287 5291 5300 5309 5333 5340 5356 5365 5356 5360 5393 5385 5397 5411 5426 5437 5435 5439 5437
5400 5395 5394 5396 5392 5388 5383 5376 5366 5355 5345 5333 5322 5315 5309 5303 5299 5297 5291 5291 5288 5285 5290 5299 5305 5303 5308 5303 5296 5296 5295 5288 5285 5278 5282 5286 5292 5310 5311 5321 5329 5344 5353 5361 5368 5379 5385 5408 5412 5422 5428 5435 5438 5441
5392 5388 5387 5387 5383 5377 5372 5365 5355 5343 5331 5319 5308 5299 5293 5288 5284 5283 5283 5282 5282 5274 5262 5283 5297 5314 5310 5304 5299 5292 5286 5281 5272 5276 5282 5289 5299 5308 5326 5334 5347 5359 5357 5364 5375 5385 5383 5398 5411 5418 5424 5431 5437 5437
5384 5382 5377 5373 5369 5366 5363 5356 5343 5327 5313 5302 5292 5286 5284 5281 5277 5272 5266 5280 5279 5276 5268 5281 5296 5305 5312 5308 5302 5297 5292 5284 5275 5280 5285 5297 5312 5310 5322 5340 5373 5378 5378 5382 5371 5378 5387 5401 5409 5415 5417 5424 5429 5429
5379 5376 5371 5365 5360 5353 5347 5335 5323 5309 5298 5290 5282 5279 5277 5275 5272 5269 5268 5275 5276 5273 5266 5271 5284 5307 5315 5316 5306 5307 5303 5295 5293 5292 5299 5313 5316 5317 5323 5339 5378 5378 5381 5377 5387 5394 5398 5401 5402 5408 5412 5419 5423 5424
5370 5369 5365 5358 5349 5339 5331 5323 5313 5303 5295 5288 5282 5278 5274 5274 5272 5271 5275 5275 5272 5270 5269 5272 5289 5296 5317 5312 5302 5308 5308 5305 5308 5307 5315 5316 5321 5324 5339 5372 5378 5384 5382 5386 5390 5392 5391 5396 5399 5399 5404 5410 5418 5419
5362 5361 5360 5354 5346 5338 5329 5321 5314 5305 5296 5289 5284 5280 5275 5270 5266 5273 5278 5279 5278 5271 5270 5279 5294 5294 5317 5316 5314 5315 5316 5323 5320 5319 5326 5329 5336 5348 5368 5374 5375 5377 5376 5382 5385 5386 5385 5386 5390 5393 5395 5396 5398 5399
5356 5353 5349 5345 5340 5335 5329 5321 5313 5307 5302 5295 5289 5279 5262 5277 5284 5282 5279 5282 5281 5284 5287 5300 5301 5307 5316 5314 5312 5317 5320 5329 5344 5339 5338 5343 5352 5369 5374 5372 5377 5372 5372 5371 5378 5376 5373 5375 5379 5382 5386 5384 5380 5379
5347 5344 5342 5340 5337 5332 5328 5322 5317 5311 5306 5300 5286 5282 5291 5292 5290 5284 5283 5288 5290 5295 5301 5313 5313 5315 5318 5319 5323 5323 5326 5334 5355 5360 5355 5360 5368 5372 5369 5367 5366 5364 5361 5360 5362 5358 5357 5364 5371 5375 5376 5373 5372 5373
5343 5341 5338 5336 5333 5329 5325 5321 5317 5313 5308 5306 5304 5302 5301 5300 5297 5299 5295 5300 5302 5316 5321 5317 5328 5328 5328 5329 5330 5332 5338 5336 5352 5356 5358 5374 5366 5364 5365 5362 5361 5359 5357 5357 5360 5355 5353 5359 5361 5364 5367 5365 5364 5364
5339 5337 5335 5332 5329 5326 5324 5322 5320 5318 5318 5314 5310 5308 5307 5293 5297 5297 5288 5315 5319 5323 5329 5336 5336 5341 5340 5337 5338 5345 5341 5335 5349 5331 5352 5360 5361 5360 5360 5357 5357 5354 5352 5353 5354 5354 5350 5348 5353 5356 5358 5358 5359 5360
5338 5336 5333 5330 5327 5324 5322 5320 5319 5319 5316 5311 5312 5292 5309 5274 5302 5310 5321 5323 5324 5324 5329 5332 5336 5343 5343 5345 5349 5349 5349 5348 5336 5339 5367 5355 5354 5352 5349 5346 5346 5346 5342 5344 5346 5346 5345 5343 5343 5347 5348 5349 5352 5354
5336 5334 5332 5329 5326 5323 5320 5317 5315 5315 5311 5315 5315 5298 5302 5314 5312 5321 5324 5324 5323 5327 5333 5333 5332 5339 5345 5341 5338 5343 5338 5337 5354 5355 5343 5341 5343 5342 5341 5339 5335 5337 5337 5339 5339 5338 5339 5339 5338 5336 5338 5343 5344 5347
5334 5333 5331 5329 5326 5322 5318 5315 5313 5310 5309 5312 5314 5319 5316 5319 5302 5314 5316 5327 5329 5325 5322 5323 5336 5333 5333 5338 5346 5333 5355 5349 5345 5335 5335 5335 5335 5335 5332 5330 5329 5330 5331 5333 5334 5335 5335 5335 5334 5335 5332 5332 5334 5336
5335 5333 5332 5330 5326 5322 5318 5314 5311 5309 5311 5312 5317 5310 5307 5300 5305 5309 5326 5326 5327 5321 5304 5311 5329 5337 5334 5342 5340 5350 5345 5337 5331 5325 5323 5320 5319 5322 5322 5320 5320 5322 5323 5324 5325 5325 5327 5328 5329 5332 5335 5336 5329 5331
5335 5334 5331 5328 5325 5322 5318 5314 5311 5312 5315 5319 5313 5302 5300 5305 5302 5306 5319 5321 5321 5319 5316 5315 5314 5319 5310 5327 5330 5323 5319 5316 5312 5309 5310 5307 5305 5305 5307 5308 5309 5311 5312 5311 5313 5315 5316 5318 5322 5325 5326 5329 5328 5325
5335 5334 5331 5327 5323 5321 5320 5316 5313 5315 5320 5314 5313 5311 5312 5313 5316 5315 5314 5316 5317 5314 5309 5311 5312 5313 5311 5314 5314 5311 5305 5298 5300 5298 5294 5294 5294 5293 5293 5293 5292 5294 5294 5297 5302 5305 5306 5307 5309 5313 5317 5321 5322 5322
5337 5336 5334 5327 5322 5317 5318 5319 5319 5320 5324 5323 5321 5322 5320 5318 5316 5311 5309 5307 5305 5301 5302 5305 5304 5300 5303 5304 5299 5296 5290 5288 5289 5283 5278 5275 5274 5274 5274 5274 5275 5276 5279 5283 5286 5288 5292 5295 5298 5302 5307 5311 5314 5316
5338 5336 5333 5326 5319 5315 5314 5319 5319 5323 5326 5323 5327 5324 5322 5316 5313 5312 5305 5308 5301 5302 5303 5293 5288 5289 5291 5292 5286 5283 5276 5271 5263 5261 5256 5254 5255 5255 5255 5255 5256 5257 5258 5263 5267 5274 5277 5283 5289 5291 5294 5298 5303 5306
5335 5335 5328 5324 5319 5317 5312 5318 5319 5320 5320 5324 5319 5317 5311 5298 5296 5304 5302 5298 5287 5275 5270 5270 5272 5274 5267 5265 5257 5254 5251 5249 5248 5245 5241 5240 5242 5242 5241 5241 5243 5243 5244 5245 5249 5253 5259 5267 5273 5279 5283 5287 5290 5295
5335 5332 5326 5321 5316 5308 5310 5315 5320 5322 5317 5319 5316 5318 5307 5303 5305 5303 5292 5282 5269 5259 5256 5255 5254 5251 5248 5245 5242 5237 5233 5231 5229 5226 5225 5224 5224 5223 5224 5225 5226 5227 5232 5235 5235 5240 5246 5247 5253 5262 5268 5273 5278 5284
5332 5327 5315 5315 5313 5297 5305 5297 5311 5314 5309 5310 5304 5295 5301 5292 5297 5293 5282 5261 5252 5248 5244 5241 5238 5236 5233 5230 5225 5219 5214 5210 5208 5208 5205 5204 5205 5205 5206 5209 5209 5209 5214 5219 5223 5225 5228 5231 5233 5241 5249 5256 5262 5269
5318 5311 5305 5299 5300 5298 5288 5283 5286 5299 5279 5288 5289 5269 5277 5288 5272 5270 5265 5245 5237 5228 5224 5222 5220 5216 5212 5209 5203 5197 5192 5189 5187 5186 5185 5183 5183 5186 5188 5190 5187 5187 5193 5194 5197 5203 5212 5214 5218 5225 5231 5237 5245 5251
5306 5303 5306 5304 5288 5293 5295 5279 5267 5271 5273 5266 5265 5274 5268 5253 5251 5249 5241 5228 5218 5212 5201 5196 5196 5192 5186 5181 5175 5171 5168 5166 5164 5163 5162 5159 5158 5161 5165 5167 5168 5170 5170 5171 5175 5181 5189 5197 5202 5209 5216 5222 5231 5237
5300 5300 5315 5310 5308 5304 5278 5277 5289 5266 5255 5243 5264 5251 5247 5237 5229 5225 5214 5206 5202 5192 5186 5178 5173 5168 5161 5157 5152 5147 5142 5140 5137 5137 5138 5136 5136 5137 5138 5143 5147 5152 5155 5156 5158 5163 5170 5179 5187 5194 5202 5210 5217 5224
5310 5308 5292 5287 5283 5289 5257 5250 5248 5244 5255 5257 5249 5232 5219 5219 5213 5199 5194 5187 5178 5173 5166 5158 5152 5146 5140 5135 5130 5124 5120 5119 5118 5120 5120 5120 5118 5116 5118 5123 5129 5136 5140 5143 5146 5152 5158 5166 5173 5181 5189 5198 5206 5213
5294 5297 5289 5268 5252 5257 5255 5257 5254 5262 5255 5246 5225 5225 5223 5207 5196 5187 5180 5169 5161 5152 5144 5135 5127 5121 5118 5115 5112 5108 5102 5097 5098 5102 5105 5109 5112 5109 5108 5111 5117 5123 5129 5135 5140 5145 5151 5156 5164 5171 5181 5190 5199 5206
5284 5290 5267 5239 5244 5252 5254 5258 5244 5241 5243 5241 5232 5215 5202 5185 5177 5172 5162 5152 5144 5136 5126 5115 5107 5098 5097 5096 5093 5091 5089 5085 5077 5077 5086 5093 5097 5100 5102 5105 5109 5115 5121 5126 5133 5140 5147 5154 5160 5168 5176 5186 5193 5200
5279 5266 5258 5251 5241 5243 5240 5229 5222 5223 5207 5204 5199 5203 5188 5174 5167 5159 5147 5136 5126 5114 5104 5099 5093 5085 5084 5086 5087 5088 5088 5083 5080 5078 5077 5081 5085 5090 5095 5099 5104 5110 5116 5120 5125 5132 5139 5145 5156 5165 5174 5181 5189 5191
5251 5251 5241 5245 5239 5233 5221 5212 5201 5197 5186 5208 5190 5171 5172 5165 5154 5141 5132 5121 5108 5097 5091 5083 5082 5083 5079 5080 5078 5077 5075 5076 5078 5079 5079 5081 5084 5087 5091 5097 5102 5107 5111 5114 5120 5126 5134 5142 5149 5158 5166 5180 5181 5181
5233 5223 5214 5216 5220 5219 5206 5206 5195 5186 5173 5192 5180 5168 5160 5149 5139 5131 5120 5112 5100 5089 5082 5080 5077 5076 5074 5073 5073 5074 5073 5075 5076 5077 5078 5079 5081 5085 5089 5094 5098 5100 5103 5108 5113 5121 5126 5132 5139 5147 5162 5167 5168 5168